Regional Weather Roundup
Issued by NWS Sioux Falls, SD

Home | Current Version | Previous Version | Text Only | Print | Product List | Glossary On
Versions: 1 2 3 4 5 6 7 8 9 10 11 12 13 14 15 16 17 18 19 20 21 22 23 24 25 26 27 28 29 30 31 32 33 34 35 36 37 38 39 40 41 42 43 44 45 46 47 48 49 50
000
ASUS43 KFSD 221010
RWRFSD

WEATHER ROUNDUP FOR SE SOUTH DAKOTA/SW MINNESOTA/NW IOWA
NATIONAL WEATHER SERVICE SIOUX FALLS SD
400 AM CST MON DEC 22 2014

NOTE: "FAIR" INDICATES FEW OR NO CLOUDS BELOW 12,000 FEET WITH NO
SIGNIFICANT WEATHER AND OR OBSTRUCTIONS TO VISIBILITY.


SDZ038>040-050-052>070-221100-
SOUTHEAST SOUTH DAKOTA

CITY           SKY/WX    TMP DP  RH WIND       PRES   REMARKS
CHAMBERLAIN    DRIZZLE   33  31  94 NW8       29.44F WCI  25
HURON          CLOUDY    35  35 100 S8        29.44S FOG     WCI  29
MADISON        LGT RAIN  36  36 100 S10       29.47F
MITCHELL       LGT RAIN  38  37  97 S9        29.45F
SIOUX FALLS    LGT RAIN  40  39  97 S14       29.49F
WINNER         LGT RAIN  39  36  89 NW23G30   29.45S
YANKTON        CLOUDY    41  37  87 SE9       29.49F
$$

MNZ071-072-080-081-089-090-097-098-221100-
SOUTHWEST MINNESOTA

CITY           SKY/WX    TMP DP  RH WIND       PRES   REMARKS
FAIRMONT       CLOUDY    39  36  87 SE17      29.60F
JACKSON        DRIZZLE   39  37  93 S13G18    29.58F
LUVERNE        LGT RAIN  39  37  93 S9        29.52F
MARSHALL       CLOUDY    39  36  87 S14       29.53F
MONTEVIDEO     CLOUDY    37  37 100 S10       29.54F FOG
PIPESTONE      LGT RAIN  37  37 100 S9        29.50F
REDWOOD FALLS  CLOUDY    39  38  96 S15       29.57S FOG
TRACY          LGT RAIN  39  38  97 S15       29.53F
WINDOM         CLOUDY    39  39 100 SE14G20   29.57F FOG
WORTHINGTON    CLOUDY    39 -11  11 S14       29.55S
$$

IAZ001>003-012>014-020>022-031-032-NEZ013-014-SDZ071-221100-
NORTHWEST IOWA

CITY           SKY/WX    TMP DP  RH WIND       PRES   REMARKS
CHEROKEE       DRIZZLE   40  40 100 S12       29.56F
DENISON        MIX PCPN  41  41 100 S16       29.56F
ESTHERVILLE    CLOUDY    38  38 100 S18       29.58F FOG
LE MARS        CLOUDY    43  43 100 S14G20    29.53F
ORANGE CITY    DRIZZLE   41  39  93 S9        29.53F
SHELDON        CLOUDY    39  39 100 S17       29.53F FOG
SIOUX CITY     LGT RAIN  43  41  93 SE12      29.53F FOG
SPENCER        CLOUDY    40  38  93 S17       29.57F FOG
STORM LAKE     CLOUDY    39  39 100 S16       29.57F FOG
$$

ABBREVIATIONS USED IN REMARKS
   TC - TEMPERATURE IN CELSIUS
  WCI - WIND CHILL INDEX
   HX - HEAT INDEX
  VSB - VISIBILITY



USA.gov is the U.S. government's official web portal to all federal, state and local government web resources and services.